Time,TemperatureF,DewpointF,PressureIn,WindDirection,WindDirectionDegrees,WindSpeedMPH,WindSpeedGustMPH,Humidity,HourlyPrecipIn,Conditions,Clouds,dailyrainin,SoftwareType,DateUTC
2013-03-26 00:05:00,35.3,34.0,29.57,WNW,292,0.0,0.0,94,0.00,,,0.28,weatherlink.com 1.10,2013-03-26 04:05:00,
2013-03-26 00:20:00,35.2,34.0,29.57,NNE,16,0.0,1.0,94,0.00,,,0.28,weatherlink.com 1.10,2013-03-26 04:20:00,
2013-03-26 00:35:00,35.2,34.0,29.57,NE,50,1.0,1.0,94,0.00,,,0.28,weatherlink.com 1.10,2013-03-26 04:35:00,
2013-03-26 00:50:00,35.3,34.0,29.58,NNW,327,1.0,3.0,93,0.00,,,0.28,weatherlink.com 1.10,2013-03-26 04:50:00,
2013-03-26 01:05:00,35.3,33.0,29.58,NW,326,0.0,0.0,91,0.00,,,0.28,weatherlink.com 1.10,2013-03-26 05:05:00,
2013-03-26 01:20:00,34.8,33.0,29.59,NW,326,0.0,0.0,92,0.00,,,0.28,weatherlink.com 1.10,2013-03-26 05:20:00,
2013-03-26 01:35:00,34.4,32.0,29.59,NW,326,0.0,0.0,92,0.00,,,0.28,weatherlink.com 1.10,2013-03-26 05:35:00,
2013-03-26 01:50:00,34.1,32.0,29.60,NW,326,0.0,0.0,93,0.00,,,0.28,weatherlink.com 1.10,2013-03-26 05:50:00,
2013-03-26 02:05:00,33.8,32.0,29.60,NW,326,0.0,0.0,93,0.00,,,0.28,weatherlink.com 1.10,2013-03-26 06:05:00,
2013-03-26 02:20:00,33.6,32.0,29.60,WNW,302,0.0,1.0,92,0.00,,,0.28,weatherlink.com 1.10,2013-03-26 06:20:00,
2013-03-26 02:35:00,33.6,31.0,29.61,WNW,302,0.0,0.0,91,0.00,,,0.28,weatherlink.com 1.10,2013-03-26 06:35:00,
2013-03-26 02:50:00,33.2,31.0,29.61,WNW,302,0.0,0.0,91,0.00,,,0.28,weatherlink.com 1.10,2013-03-26 06:50:00,
2013-03-26 03:05:00,33.2,31.0,29.61,WNW,302,0.0,0.0,91,0.00,,,0.28,weatherlink.com 1.10,2013-03-26 07:05:00,
2013-03-26 03:20:00,33.2,31.0,29.61,WNW,302,0.0,0.0,92,0.00,,,0.28,weatherlink.com 1.10,2013-03-26 07:20:00,
2013-03-26 03:35:00,33.7,32.0,29.61,WNW,300,0.0,0.0,92,0.00,,,0.28,weatherlink.com 1.10,2013-03-26 07:35:00,
2013-03-26 03:50:00,34.3,32.0,29.62,WNW,296,0.0,1.0,90,0.00,,,0.28,weatherlink.com 1.10,2013-03-26 07:50:00,
2013-03-26 04:06:00,34.8,32.0,29.62,West,268,0.0,1.0,88,0.00,,,0.28,weatherlink.com 1.10,2013-03-26 08:06:00,
2013-03-26 04:21:00,35.5,32.0,29.63,WSW,246,1.0,2.0,86,0.00,,,0.28,weatherlink.com 1.10,2013-03-26 08:21:00,
2013-03-26 04:36:00,35.9,32.0,29.63,West,264,0.0,1.0,85,0.00,,,0.28,weatherlink.com 1.10,2013-03-26 08:36:00,
2013-03-26 04:51:00,36.0,32.0,29.64,West,274,0.0,1.0,85,0.00,,,0.28,weatherlink.com 1.10,2013-03-26 08:51:00,
2013-03-26 05:06:00,36.1,32.0,29.64,West,278,0.0,1.0,85,0.00,,,0.28,weatherlink.com 1.10,2013-03-26 09:06:00,
2013-03-26 05:36:00,36.3,32.0,29.66,WSW,252,0.0,1.0,85,0.00,,,0.28,weatherlink.com 1.10,2013-03-26 09:36:00,
2013-03-26 06:21:00,35.8,32.0,29.67,SW,228,0.0,0.0,86,0.00,,,0.28,weatherlink.com 1.10,2013-03-26 10:21:00,
2013-03-26 06:51:00,35.2,32.0,29.68,SW,228,0.0,0.0,88,0.00,,,0.28,weatherlink.com 1.10,2013-03-26 10:51:00,
2013-03-26 07:06:00,35.0,32.0,29.69,SW,228,0.0,0.0,89,0.00,,,0.28,weatherlink.com 1.10,2013-03-26 11:06:00,
2013-03-26 07:21:00,34.6,32.0,29.69,SW,228,0.0,0.0,89,0.00,,,0.28,weatherlink.com 1.10,2013-03-26 11:21:00,
2013-03-26 07:36:00,35.1,33.0,29.70,NE,53,0.0,1.0,90,0.00,,,0.28,weatherlink.com 1.10,2013-03-26 11:36:00,
2013-03-26 07:51:00,35.5,33.0,29.71,NE,53,0.0,0.0,91,0.00,,,0.28,weatherlink.com 1.10,2013-03-26 11:51:00,
2013-03-26 08:06:00,36.3,34.0,29.71,NE,53,0.0,0.0,90,0.00,,,0.28,weatherlink.com 1.10,2013-03-26 12:06:00,
2013-03-26 08:21:00,38.0,35.0,29.71,WNW,298,0.0,1.0,87,0.00,,,0.28,weatherlink.com 1.10,2013-03-26 12:21:00,
2013-03-26 08:51:00,40.6,34.0,29.72,WSW,240,1.0,2.0,78,0.00,,,0.28,weatherlink.com 1.10,2013-03-26 12:51:00,
2013-03-26 09:06:00,41.4,34.0,29.72,WNW,287,0.0,2.0,75,0.00,,,0.28,weatherlink.com 1.10,2013-03-26 13:06:00,
2013-03-26 09:21:00,42.0,34.0,29.72,South,191,1.0,4.0,72,0.00,,,0.28,weatherlink.com 1.10,2013-03-26 13:21:00,
2013-03-26 09:36:00,42.5,33.0,29.72,WSW,256,0.0,-999.0,68,-99.99,,,0.28,weatherlink.com 1.10,2013-03-26 13:36:00,
2013-03-26 09:51:00,43.2,32.0,29.72,West,277,0.0,4.0,65,0.00,,,0.28,weatherlink.com 1.10,2013-03-26 13:51:00,
2013-03-26 10:06:00,43.8,32.0,29.72,WSW,246,3.0,7.0,63,0.00,,,0.28,weatherlink.com 1.10,2013-03-26 14:06:00,
2013-03-26 10:21:00,44.7,31.0,29.72,WSW,242,1.0,5.0,60,0.00,,,0.28,weatherlink.com 1.10,2013-03-26 14:21:00,
2013-03-26 10:37:00,45.7,31.0,29.73,SW,215,1.0,8.0,57,0.00,,,0.28,weatherlink.com 1.10,2013-03-26 14:37:00,
2013-03-26 10:52:00,46.5,32.0,29.72,West,281,3.0,7.0,58,0.00,,,0.28,weatherlink.com 1.10,2013-03-26 14:52:00,
2013-03-26 11:07:00,46.7,31.0,29.73,WNW,297,3.0,12.0,54,0.00,,,0.28,weatherlink.com 1.10,2013-03-26 15:07:00,
2013-03-26 11:22:00,47.5,31.0,29.73,WNW,295,2.0,8.0,53,0.00,,,0.28,weatherlink.com 1.10,2013-03-26 15:22:00,
2013-03-26 11:37:00,48.0,30.0,29.73,WSW,249,6.0,6.0,51,0.00,,,0.28,weatherlink.com 1.10,2013-03-26 15:37:00,
2013-03-26 11:52:00,48.4,31.0,29.73,WNW,290,2.0,8.0,51,0.00,,,0.28,weatherlink.com 1.10,2013-03-26 15:52:00,
2013-03-26 12:07:00,48.7,32.0,29.73,East,95,2.0,11.0,52,0.00,,,0.00,weatherlink.com 1.10,2013-03-26 16:07:00,
2013-03-26 12:22:00,49.3,30.0,29.72,SSE,158,1.0,11.0,48,0.00,,,0.00,weatherlink.com 1.10,2013-03-26 16:22:00,
2013-03-26 12:37:00,50.8,31.0,29.72,West,269,4.0,8.0,46,0.00,,,0.00,weatherlink.com 1.10,2013-03-26 16:37:00,
2013-03-26 12:52:00,50.4,28.0,29.72,WSW,253,5.0,9.0,43,0.00,,,0.00,weatherlink.com 1.10,2013-03-26 16:52:00,
2013-03-26 13:07:00,50.6,27.0,29.72,NNE,30,2.0,10.0,40,0.00,,,0.00,weatherlink.com 1.10,2013-03-26 17:07:00,
2013-03-26 13:22:00,51.0,28.0,29.72,West,269,1.0,9.0,41,0.00,,,0.00,weatherlink.com 1.10,2013-03-26 17:22:00,
2013-03-26 13:37:00,50.4,27.0,29.72,North,353,0.0,11.0,41,0.00,,,0.00,weatherlink.com 1.10,2013-03-26 17:37:00,
2013-03-26 13:52:00,50.8,28.0,29.72,ENE,71,3.0,7.0,41,0.00,,,0.00,weatherlink.com 1.10,2013-03-26 17:52:00,
2013-03-26 14:07:00,50.8,28.0,29.72,WNW,297,2.0,10.0,41,0.00,,,0.00,weatherlink.com 1.10,2013-03-26 18:07:00,
2013-03-26 14:22:00,53.7,27.0,29.71,SSW,207,1.0,12.0,36,0.00,,,0.00,weatherlink.com 1.10,2013-03-26 18:22:00,
2013-03-26 14:37:00,51.2,27.0,29.72,ENE,62,3.0,9.0,40,0.00,,,0.00,weatherlink.com 1.10,2013-03-26 18:37:00,
2013-03-26 14:52:00,49.7,27.0,29.72,NNW,330,3.0,9.0,41,0.00,,,0.00,weatherlink.com 1.10,2013-03-26 18:52:00,
2013-03-26 15:07:00,50.0,27.0,29.72,ESE,119,6.0,8.0,41,0.00,,,0.00,weatherlink.com 1.10,2013-03-26 19:07:00,
2013-03-26 15:22:00,49.5,27.0,29.72,NNW,345,2.0,4.0,42,0.00,,,0.00,weatherlink.com 1.10,2013-03-26 19:22:00,
2013-03-26 15:37:00,49.3,28.0,29.73,ESE,115,0.0,4.0,44,0.00,,,0.00,weatherlink.com 1.10,2013-03-26 19:37:00,
2013-03-26 15:52:00,49.2,27.0,29.73,WNW,300,1.0,8.0,43,0.00,,,0.00,weatherlink.com 1.10,2013-03-26 19:52:00,
2013-03-26 16:07:00,49.0,27.0,29.73,SW,236,6.0,7.0,43,0.00,,,0.00,weatherlink.com 1.10,2013-03-26 20:07:00,
2013-03-26 16:22:00,49.3,27.0,29.73,NW,304,1.0,6.0,43,0.00,,,0.00,weatherlink.com 1.10,2013-03-26 20:22:00,
2013-03-26 16:37:00,50.0,28.0,29.73,WSW,245,2.0,6.0,42,0.00,,,0.00,weatherlink.com 1.10,2013-03-26 20:37:00,
2013-03-26 16:52:00,48.9,29.0,29.74,West,266,2.0,6.0,46,0.00,,,0.00,weatherlink.com 1.10,2013-03-26 20:52:00,
2013-03-26 17:07:00,47.8,29.0,29.75,WNW,288,2.0,8.0,49,0.00,,,0.00,weatherlink.com 1.10,2013-03-26 21:07:00,
2013-03-26 17:22:00,47.1,30.0,29.75,ESE,119,0.0,8.0,52,0.00,,,0.00,weatherlink.com 1.10,2013-03-26 21:22:00,
2013-03-26 17:37:00,47.1,30.0,29.75,South,191,0.0,3.0,52,0.00,,,0.00,weatherlink.com 1.10,2013-03-26 21:37:00,
2013-03-26 17:52:00,47.4,29.0,29.76,ENE,65,2.0,5.0,50,0.00,,,0.00,weatherlink.com 1.10,2013-03-26 21:52:00,
2013-03-26 18:07:00,47.3,29.0,29.76,East,81,2.0,9.0,50,0.00,,,0.00,weatherlink.com 1.10,2013-03-26 22:07:00,
2013-03-26 18:22:00,46.9,29.0,29.76,West,281,2.0,5.0,50,0.00,,,0.00,weatherlink.com 1.10,2013-03-26 22:22:00,
2013-03-26 18:37:00,46.9,29.0,29.77,NW,308,2.0,5.0,51,0.00,,,0.00,weatherlink.com 1.10,2013-03-26 22:37:00,
2013-03-26 18:53:00,46.4,28.0,29.77,WSW,244,3.0,4.0,50,0.00,,,0.00,weatherlink.com 1.10,2013-03-26 22:53:00,
2013-03-26 19:08:00,45.9,28.0,29.78,NW,307,1.0,3.0,50,0.00,,,0.00,weatherlink.com 1.10,2013-03-26 23:08:00,
2013-03-26 19:23:00,45.9,28.0,29.78,WSW,253,2.0,7.0,49,0.00,,,0.00,weatherlink.com 1.10,2013-03-26 23:23:00,
2013-03-26 19:38:00,45.5,27.0,29.79,West,277,1.0,4.0,48,0.00,,,0.00,weatherlink.com 1.10,2013-03-26 23:38:00,
2013-03-26 19:53:00,44.6,27.0,29.80,WNW,294,0.0,2.0,50,0.00,,,0.00,weatherlink.com 1.10,2013-03-26 23:53:00,
2013-03-26 20:08:00,43.8,27.0,29.80,West,273,0.0,2.0,53,0.00,,,0.00,weatherlink.com 1.10,2013-03-27 00:08:00,
2013-03-26 20:23:00,43.3,28.0,29.81,West,260,1.0,2.0,55,0.00,,,0.00,weatherlink.com 1.10,2013-03-27 00:23:00,
2013-03-26 20:38:00,43.2,28.0,29.81,West,278,0.0,3.0,56,0.00,,,0.00,weatherlink.com 1.10,2013-03-27 00:38:00,
2013-03-26 20:53:00,42.6,28.0,29.82,NNW,342,0.0,2.0,57,0.00,,,0.00,weatherlink.com 1.10,2013-03-27 00:53:00,
2013-03-26 21:08:00,42.2,28.0,29.82,WNW,290,0.0,3.0,57,0.00,,,0.00,weatherlink.com 1.10,2013-03-27 01:08:00,
2013-03-26 21:23:00,41.4,28.0,29.83,West,273,0.0,1.0,59,0.00,,,0.00,weatherlink.com 1.10,2013-03-27 01:23:00,
2013-03-26 21:38:00,41.4,28.0,29.83,West,273,1.0,3.0,59,0.00,,,0.00,weatherlink.com 1.10,2013-03-27 01:38:00,
2013-03-26 21:53:00,42.4,28.0,29.83,WNW,289,1.0,5.0,57,0.00,,,0.00,weatherlink.com 1.10,2013-03-27 01:53:00,
2013-03-26 22:08:00,42.5,28.0,29.84,West,273,0.0,4.0,56,0.00,,,0.00,weatherlink.com 1.10,2013-03-27 02:08:00,
2013-03-26 22:23:00,41.8,28.0,29.84,NE,39,2.0,3.0,58,0.00,,,0.00,weatherlink.com 1.10,2013-03-27 02:23:00,
2013-03-26 22:38:00,41.6,28.0,29.84,WNW,300,0.0,5.0,58,0.00,,,0.00,weatherlink.com 1.10,2013-03-27 02:38:00,
2013-03-26 22:53:00,41.0,27.0,29.84,WNW,295,0.0,1.0,59,0.00,,,0.00,weatherlink.com 1.10,2013-03-27 02:53:00,
2013-03-26 23:08:00,39.9,28.0,29.84,West,281,0.0,0.0,62,0.00,,,0.00,weatherlink.com 1.10,2013-03-27 03:08:00,
2013-03-26 23:23:00,38.5,28.0,29.84,West,281,0.0,0.0,65,0.00,,,0.00,weatherlink.com 1.10,2013-03-27 03:23:00,
2013-03-26 23:38:00,38.8,28.0,29.85,West,264,0.0,1.0,65,0.00,,,0.00,weatherlink.com 1.10,2013-03-27 03:38:00,
2013-03-26 23:53:00,38.6,28.0,29.85,NNE,12,0.0,1.0,65,0.00,,,0.00,weatherlink.com 1.10,2013-03-27 03:53:00,